This is the latest recevied weather packets stored in our database for station/object N1UNH. If no packets are shown the sender has not sent any weather packets the latest 10 day(s).
| Time | Temp. | Humidity | Pressure | Rain* | Wind** | Luminosity | Snow |
|---|---|---|---|---|---|---|---|
| 1777856576 | 3.89° C | 69% | 1014.2 hPa | 0 mm | - | 0 W/m² | - |
| 1777856273 | 4.44° C | 70% | 1014.3 hPa | 0 mm | - | 0 W/m² | - |
| 1777855970 | 4.44° C | 69% | 1014.3 hPa | 0 mm | - | 0 W/m² | - |
| 1777855668 | 4.44° C | 69% | 1013.9 hPa | 0 mm | - | 0 W/m² | - |
| 1777855365 | 4.44° C | 71% | 1013.9 hPa | 0 mm | - | 0 W/m² | - |
| 1777855061 | 5° C | 70% | 1013.9 hPa | 0 mm | - | 0 W/m² | - |
| 1777854758 | 5° C | 69% | 1013.5 hPa | 0 mm | - | 0 W/m² | - |
| 1777854455 | 5° C | 66% | 1013.6 hPa | 0 mm | - | 0 W/m² | - |
| 1777854152 | 5.56° C | 66% | 1013.6 hPa | 0 mm | - | 0 W/m² | - |
| 1777853850 | 5.56° C | 65% | 1013.5 hPa | 0 mm | - | 0 W/m² | - |
| 1777853546 | 5.56° C | 69% | 1013.3 hPa | 0 mm | - | 0 W/m² | - |
| 1777853243 | 6.11° C | 67% | 1013.6 hPa | 0 mm | - | 0 W/m² | - |
| 1777852940 | 6.11° C | 67% | 1013.6 hPa | 0 mm | - | 0 W/m² | - |
| 1777852638 | 6.67° C | 64% | 1013.2 hPa | 0 mm | - | 1 W/m² | - |
| 1777852335 | 6.67° C | 62% | 1013.3 hPa | 0 mm | - | 2 W/m² | - |
| 1777852033 | 7.22° C | 57% | 1013.3 hPa | 0 mm | - | 3 W/m² | - |
| 1777851731 | 7.78° C | 54% | 1013.3 hPa | 0 mm | - | 5 W/m² | - |
| 1777851428 | 7.78° C | 56% | 1013.3 hPa | 0 mm | - | 6 W/m² | - |
| 1777851123 | 7.78° C | 58% | 1013.2 hPa | 0 mm | - | 8 W/m² | - |
| 1777850820 | 8.33° C | 51% | 1013.2 hPa | 0 mm | - | 10 W/m² | - |
| 1777850517 | 8.33° C | 49% | 1013.2 hPa | 0 mm | - | 12 W/m² | - |
| 1777850216 | 8.33° C | 49% | 1012.9 hPa | 0 mm | - | 20 W/m² | - |
| 1777849911 | 8.33° C | 45% | 1013.1 hPa | 0 mm | - | 19 W/m² | - |
| 1777849608 | 8.89° C | 53% | 1012.9 hPa | 0 mm | - | 20 W/m² | - |
| 1777849306 | 8.89° C | 49% | 1012.9 hPa | 0 mm | - | 21 W/m² | - |
* Rain latest hour (hover to see other rain measurements)
** Current wind speed in m/s (hover to see current wind gust speed)